< < Back
Terminal Aerodrome Forecast


Current Version              Previous Versions:   1  2  3  4  5  6  7  8  9  

Terminal Aerodrome Forecast

855
FTUS42 KGSP 241137
TAFHKY
TAF
KHKY 241137Z 2412/2512 VRB02KT 6SM BR SCT017 BKN060
     FM241500 VRB02KT P6SM BKN025
     FM241600 VRB02KT P6SM BKN035
     FM250600 VRB02KT 4SM BR SCT050=

Latest METAR

966
SAUS70 KWBC 242100 RRF
MTRHKY
METAR KHKY 242053Z 17003KT 10SM OVC070 26/21 A3024 RMK AO2 SLP219
T02610211


USA.gov is the U.S. government's official web portal to all federal, state and local government web resources and services.